AirNav   Everest Fuels
 
 366 users online  

U88 Garden Valley Airport
Garden Valley, Idaho, USA

GOING TO GARDEN VALLEY?


FAA INFORMATION EFFECTIVE 25 FEBRUARY 2021

Location

FAA Identifier: U88
Lat/Long: 44-04-01.0000N 115-55-52.6000W
44-04.016667N 115-55.876667W
44.0669444,-115.9312778
(estimated)
Elevation: 3177 ft. / 968.3 m (surveyed)
Variation: 17E (1985)
From city: 2 miles SE of GARDEN VALLEY, ID
Time zone: UTC -7 (UTC -6 during Daylight Saving Time)
Zip code: 83622

Airport Operations

Airport use: Open to the public
Activation date: 06/1967
Control tower: no
ARTCC: SALT LAKE CITY CENTER
FSS: BOISE FLIGHT SERVICE STATION
NOTAMs facility: BOI (NOTAM-D service available)
Attendance: UNATNDD
Wind indicator: yes
Segmented circle: yes
1/2 SEGMENTED CIRCLE.

Airport Communications

CTAF: 122.9

Nearby radio navigation aids

VOR radial/distance  VOR name  Freq  Var
BOIr003/32.9BOISE VORTAC113.3017E

Airport Services

Parking: tiedowns
Airframe service: NONE
Powerplant service: NONE
Bottled oxygen: NONE
Bulk oxygen: NONE

Runway Information

Runway 10/28

Dimensions: 3850 x 125 ft. / 1173 x 38 m
Surface: turf, in good condition
Runway edge markings: 10/28 EDGES & THLDS MARKED WITH WHITE ROCKS.
Operational restrictions: RCMD LANDING RWY 10; TAKE-OFF RWY 28 IF WINDS ALLOW.
RUNWAY 10  RUNWAY 28
Latitude: 44-04.155167N44-03.879167N
Longitude: 115-56.272167W115-55.481000W
Elevation: 3125.0 ft.3177.0 ft.
Traffic pattern: leftleft
Obstructions: 4 ft. fence, 80 ft. left of centerline4 ft. fence, 63 ft. right of centerline

Airport Ownership and Management from official FAA records

Ownership: Publicly-owned
Owner: STATE OF ID, ITD, DIV AERO
P.O. BOX 7129
BOISE, ID 83707-1129
Phone 208-334-8775
Manager: DIV ADMIN.
P.O. BOX 7129
BOISE, ID 83707-1129
Phone 208-334-8775

Airport Operational Statistics

Aircraft based on the field: 5
Single engine airplanes: 5
    
Aircraft operations: avg 49/week *
78% transient general aviation
18% local general aviation
2% military
2% air taxi
* for 12-month period ending 30 April 2018

Additional Remarks

NO WINTER MAINTENANCE.
USFS HELIPORT OPNS ADJACENT TO SE END OF ARPT.
WATCH FOR SPRINKLER HEADS ON RY.
ARPT LCTD IN MTN VALLEY.
NUMEROUS ADDITIONAL OBSTNS ON APCH ENDS OF BOTH RWYS.
NO TELEPHONE AVBL AT ARPT.

Instrument Procedures

There are no published instrument procedures at U88.

Some nearby airports with instrument procedures:

KBOI - Boise Air Terminal/Gowen Field (33 nm SW)
KMAN - Nampa Municipal Airport (39 nm SW)
KEUL - Caldwell Industrial Airport (40 nm SW)
S87 - Weiser Municipal Airport (45 nm W)
KONO - Ontario Municipal Airport (47 nm W)
 
Loc | Ops | Rwys | IFR | FBO | Links
Com | Nav | Svcs | Stats | Notes
Area around U88 (Garden Valley Airport)
 
Road maps at: MapQuest Bing Google
 
Aerial photo
WARNING: Photo may not be current or correct
Aerial photo of U88 (Garden Valley Airport)
Photo by C. Wayne Wright, NASA
Photo taken 06-Oct-2007

Do you have a better or more recent aerial photo of Garden Valley Airport that you would like to share? If so, please send us your photo.

 
Sectional chart

 
Airport distance calculator
Flying to Garden Valley Airport? Find the distance to fly.

From to U88

Sunrise and sunset
Times for 01-Mar-2021
 Local
(UTC-7)
 Zulu
(UTC)
Morning civil twilight06:5313:53
Sunrise07:2214:22
Sunset18:3101:31
Evening civil twilight19:0002:00

Current date and time
Zulu (UTC)  01-Mar-2021 07:38:09
Local (UTC-7)  01-Mar-2021 00:38:09
 
METAR
KBOI 
33nm SW 
010653Z 09005KT 10SM CLR M01/M06 A3035 RMK AO2 SLP294 T10111056 400501067
KMAN 
39nm SW 
010655Z AUTO 12003KT 8SM FEW048 M03/M03 A3037 RMK A01
KEUL 
40nm SW 
010656Z AUTO 00000KT 10SM CLR M02/M05 A3037 RMK AO2 SLP303 T10221050 400671072 FZRANO
KSNT 
43nm E 
010651Z AUTO 11003KT M16/M18 A3030 RMK AO1 SLP328 T11561178 410281256
KONO 
47nm W 
010653Z AUTO 30003KT 10SM CLR M02/M06 A3039 RMK AO2 SLP315 T10171061 400611050
KMYL 
50nm N 
010651Z AUTO 00000KT 10SM OVC025 M06/M08 A3028 RMK AO2 SLP309 T10561083 410331206
TAF
KBOI 
33nm SW 
010520Z 0106/0206 14005KT P6SM SKC FM011800 14013G25KT P6SM SKC FM020200 14008KT P6SM FEW250
KEUL 
40nm SW 
010520Z 0106/0206 12005KT P6SM SKC FM011800 15015G28KT P6SM SKC FM020200 14009KT P6SM FEW250
NOTAMs
Click for the latest NOTAMs
NOTAMs are issued by the DoD/FAA and will open in a separate window not controlled by AirNav.

 

 
 

Would you like to see your business listed on this page?

 If your business provides an interesting product or service to pilots, flight crews, aircraft, or users of the Garden Valley Airport, you should consider listing it here.  To start the listing process, click on the button below
 
Add a business
 

Other Pages about Garden Valley Airport

www.flyidaho.org/...
 
Update a link
 
Copyright © AirNav, LLC. All rights reserved. Privacy Policy  Contact